Volver al catálogo

ONEWEB-0142

ActivoComunicacionesPO
NORAD 47288·PAYLOAD·🇬🇧 United Kingdom

Lanzado Dec 18, 2020 desde Vostochny Cosmodrome

Loading…

Próximos Pases (próximas 24 horas)

TLE

ActualizadoSource: CelesTrak SupGP

Época: Sep 14, 2026, 21:45 UTC

1 47288C 20100AG  26257.90639307 -.00000626  00000+0 -17430-2 0  2570
2 47288  87.8987 332.8555 0001471 104.3661 346.0995 13.12444671    13

Sigue ONEWEB-0142 en tiempo real con AllMySat

Download on the App Store